Hourly Data Report for September 25, 2003

TORONTO CITY
ONTARIO

43°40'00.000" N
79°24'00.000" W
112.50 m
6158355
71508
XTO

Download Data

Hourly Data (September 2003)
Hourly Data Report for September 25, 2003
TIME
LST
Temp Definition
°C
Dew Point Definition
°C
Rel Hum Definition
%
Precip. Amount Definition
mm

Wind Dir Definition
10's deg

Wind Spd Definition
km/h
Visibility Definition
km
Stn Press Definition
kPa
Hmdx Definition


Wind Chill Definition


Weather Definition


00:00 17.4 14.9 85   LegendMM LegendMM LegendMM 99.26     LegendNANA
01:00 18.0 15.0 83   LegendMM LegendMM LegendMM 99.16     LegendNANA
02:00 18.3 15.2 82   LegendMM LegendMM LegendMM 99.08     LegendNANA
03:00 13.5 12.0 91   LegendMM LegendMM LegendMM 99.21     LegendNANA
04:00 12.9 11.3 90   LegendMM LegendMM LegendMM 99.25     LegendNANA
05:00 13.1 11.3 89   LegendMM LegendMM LegendMM 99.34     LegendNANA
06:00 12.7 10.1 84   LegendMM LegendMM LegendMM 99.48     LegendNANA
07:00 12.6 9.6 82   LegendMM LegendMM LegendMM 99.60     LegendNANA
08:00 13.8 9.2 74   LegendMM LegendMM LegendMM 99.70     LegendNANA
09:00 14.6 7.2 61   LegendMM LegendMM LegendMM 99.79     LegendNANA
10:00 16.3 6.4 52   LegendMM LegendMM LegendMM 99.84     LegendNANA
11:00 15.7 5.5 51   LegendMM LegendMM LegendMM 99.90     LegendNANA
12:00 16.5 4.8 46   LegendMM LegendMM LegendMM 99.93     LegendNANA
13:00 17.8 5.8 45   LegendMM LegendMM LegendMM 99.94     LegendNANA
14:00 18.6 5.0 41   LegendMM LegendMM LegendMM 99.94     LegendNANA
15:00 16.9 5.4 47   LegendMM LegendMM LegendMM 99.98     LegendNANA
16:00 16.4 5.1 47   LegendMM LegendMM LegendMM 100.06     LegendNANA
17:00 15.7 5.5 51   LegendMM LegendMM LegendMM 100.14     LegendNANA
18:00 14.9 5.4 53   LegendMM LegendMM LegendMM 100.20     LegendNANA
19:00 13.8 5.7 58   LegendMM LegendMM LegendMM 100.26     LegendNANA
20:00 12.6 6.4 66   LegendMM LegendMM LegendMM 100.30     LegendNANA
21:00 11.9 6.7 70   LegendMM LegendMM LegendMM 100.29     LegendNANA
22:00 11.3 6.8 74   LegendMM LegendMM LegendMM 100.27     LegendNANA
23:00 10.8 6.2 73   LegendMM LegendMM LegendMM 100.27     LegendNANA

Notes on Data Quality.

Legend

  • E = Estimated
  • M = Missing
  • NA = Not Available*
  • [empty] = Indicates an unobserved value
Date modified: